Location: *
(46.3500°N, 10.9000°E)
Time: 10:05:16
(UTC+00:00)

Vanguard 2 - Pass Details

Date: 02 December 2021
Orbit: 553 x 2936 km, 32.9° (Epoch: 18 January)

Event Time Altitude Azimuth Distance (km) Brightness Sun altitude
Rises 17:40:46 0° 260° (W) 4,140 12.8 -21.6°
Reaches altitude 10° 17:43:53 10° 247° (WSW) 3,500 11.9 -22.2°
Maximum altitude 17:50:54 24° 197° (SSW) 3,202 10.9 -23.3°
Drops below altitude 10° 18:00:39 10° 152° (SSE) 4,994 11.4 -25.0°
Sets 18:06:19 0° 141° (SE) 6,353 11.9 -26.0°
